User: anonymous   Login
Location: Freemans Gardens
(41.6414°N, 83.6077°W)
Time: 00:53:16
(UTC+00:00)
Language:

USA 308 - Orbit

View from above orbital plane
View from above orbital plane
View from above satellite
View from above satellite

Ground track
Ground track

The orbit data is extracted from the following two-line orbital elements,

1 45876U 20046D   21011.77768372 0.00001961  00000-0  16458-3 0    01
2 45876  53.9711 225.0781 0015113 406.8686 313.1310 14.97814692    05
Epoch (UTC): 11 January 2021 18:39:51
Eccentricity: 0.0015113
inclination: 53.9711°
perigee height: 563 km
apogee height: 584 km
right ascension of ascending node: 225.0781°
argument of perigee: 406.8686°
revolutions per day: 14.97814692
mean anomaly at epoch: 313.1310°
orbit number at epoch: 0

The dashed part of the orbit path shows where the satellite is in the earth's shadow,  

DLR